Location: Newark
(12.1500°S, 17.6667°E)
Time: 05:59:03
(UTC+00:00)

Hubble Space Telescope - Visible Passes

Search period start: 22 September 2019 00:00
Search period end: 02 October 2019 00:00
Orbit: 536 x 540 km, 28.5° (Epoch: 21 September)

Date Brightness Start Highest point End Pass type
(mag) Time Alt. Az. Time Alt. Az. Time Alt. Az.
22 Sep 2.2 17:54:21 10° W 17:58:02 31° NNW 18:00:11 19° NNE visible
23 Sep 2.8 17:44:10 10° W 17:47:28 23° NNW 17:50:44 10° NNE visible
24 Sep 3.3 17:34:14 10° WNW 17:36:54 16° NNW 17:39:33 10° N visible
25 Sep 3.5 17:24:46 10° NW 17:26:20 12° NNW 17:27:53 10° N visible
28 Sep 3.4 03:20:43 10° N 03:22:18 12° NNE 03:23:53 10° NE visible
29 Sep 3.1 03:09:47 13° N 03:11:43 17° NNE 03:14:24 10° ENE visible
30 Sep 2.6 03:00:17 21° NNE 03:01:09 23° NNE 03:04:27 10° E visible
01 Oct 2.1 02:50:44 31° NE 02:50:44 31° NE 02:54:16 10° E visible
